EHI
0 0 0 0 0 0 0 0 0 0 0 0 0 0 0 0 0 0 0 0 0 0 0 0 0 0 0 0 0 0 0 0 0 0 0 0 0 0
0 0 0 0 0 0 0 0 0 0 0 0 0 0 0 0 0 0 0 0 0 0 0 0 0 0 0 0 0 0 0 0 0 0 0 0 0 0
0 0 0 0 0 0 0 0 0 0 0 0 0 0 0 0 0 0 0 0 0 0 0 0 0 0 0 0 0 0 0 0 0 0 0 0 0 0
0 0 0 0 0 0 0 0 0 0 0 0 0 0 0 0 0 0 0 0 0 0 0 0 0 0 0 0 0 0 0 0 0 0 0 0 0 0
0 0 0 0 0 0 0 0 0 0 0 0 0 0 0 0 0 0 0 0 0 0 0 0 0 0 0 0 0 0 0 0 0 0 0 0 0 0
0 0 0 0 0 0 0 0 0 0 0 0 0 0 0 0 0 0 0 0 0 0 0 0 0 0 0 0 0 0 0 0 0 0 0 0 0 0
0 0 0 0 0 0 0 0 0 0 0 0 0 0 0 0 0 0 0 0 0 0 0 0 0 0 0 0 0 0 0 0 0 0 0 0 0 0
0 0 0 0 0 0 0 0 0 0 0 0 0 0 0 0 0 0 0 0 0 0 0 0 0 0 0 0 0 0 0 0 0 0 0 0 0 0
0 0 0 0 0 0 0 0 0 0 0 0 0 0 0 0 0 0 0 0 0 0 0 0 0 0 0 0 0 0 0 0 0 0 0 0 0 0
0 0 0 0 0 0 0 0 0 0 0 0 0 0 0 0 0 0 0 0 0 0 0 0 0 0 0 0 0 0 0 0 0 0 0 0 0 0
0 0 0 0 0 0 0 0 0 0 0 0 0 0 0 0 0 0 0 0 0 0 0 0 0 0 0 0 0 0 0 0 0 0 0 0 0 0
1 1 0 0 0 0 0 0 0 0 0 0 0 0 0 0 0 0 0 0 0 0 0 0 0 0 0 0 0 0 0 0 0 0 0 0 0 0
0 0 0 0 0 0 0 0 0 0 0 0 0 0 0 0 0 0 0 0 0 0 0 0 0 0 0 0 0 0 0 0 0 0 0 0 0 0
0 0 0 0 0 0 0 0 0 0 0 0 0 0 0 0 0 0 0 0 0 0 0 0 0 0 0 0 0 0 0 0 0 0 0 0 0 0
0 0 0 0 0 0 0 0 0 0 0 0 0 0 0 0 0 0 0 0 0 0 0 0 0 0 0 0 0 0 0 0 0 0 0 0 0 0
0 0 0 0 0 0 0 0 0 0 0 0 0 0 0 0 0 0 0 0 0 0 0 0 0 0 0 0 0 0 0 0 0 0 0 0 0 0
0 0 0 0 0 0 0 0 0 0 0 0 0 0 0 0 0 0 0 0 0 0 0 0 0 0 0 0 0 0 0 0 0 0 0 0 0 0
0 0 0 0 0 0 0 0 0 0 0 0 0 0 0 0 0 0 0 0 0 0 0 0 0 0 0 0 0 0 0 0 0 0 0 0 0 0
0 0 0 0 0 0 0 0 0 0 0 0 0 0 0 0 0 0 0 0 0 0 0 0 0 0 0 0 0 0 0 0 0 0 0 0 0 0
0 0 0 0 0 0 0 0 0 0 0 0 0 0 0 0 0 0 0 0 0 0 0 0 0 0 0 0 0 0 0 0 0 0 0 0 0 0
0 0 0 0 0 0 0 0 0 0 0 0 0 0 0 0 0 0 0 0 0 0 0 0 0 0 0 0 0 0 0 0 0 0 0 0 0 0
0 0 0 0 0 0 0 0 0 0 0 0 0 0 0 0 0 0 0 0 0 0 0 0 0 0 0 0 0 0 0 0 0 0 0 0 0 0
0 0 0 0 0 0 0 0 0 0 0 0 0 0 0 0 0 0 0 0 0 0 0 0 0 0 0 0 0 0 0 0 0 0 0 0 0 0
Wind_Speed
3 3 2 2 2 3 3 3 3 3 2 2 1 1 1 1 1 1 1 3 3 4 4 4 5 5 5 5 5 5 5 5 5 4 4 4 4 4
1 2 2 1 2 2 2 2 2 3 2 1 1 0 1 1 3 1 2 4 5 5 5 5 6 6 6 6 6 6 6 6 6 6 6 6 5 5
1 1 1 1 1 1 1 2 2 2 2 1 1 1 1 2 2 2 1 1 2 5 6 6 6 6 6 6 6 6 6 6 6 6 6 6 5 5
0 1 1 1 1 1 1 2 2 2 3 3 1 1 1 1 1 1 2 2 2 4 5 6 6 6 7 7 6 6 6 6 6 6 6 5 5 4
1 1 1 1 1 1 1 2 1 2 2 2 2 1 1 1 2 2 2 2 2 3 4 5 5 6 7 7 6 6 6 5 5 5 5 5 5 4
1 1 1 1 1 1 1 2 2 2 2 2 2 1 1 1 1 1 1 1 1 1 2 2 4 5 5 6 6 6 5 5 4 4 4 4 3 3
2 2 2 2 2 2 2 2 3 3 3 2 2 1 1 1 1 1 1 0 1 0 1 1 1 1 1 3 4 4 5 4 4 3 3 2 2 2
1 1 2 3 3 4 4 4 4 3 3 2 2 2 1 1 1 1 1 1 0 0 1 0 0 1 1 2 3 4 5 4 4 4 3 2 2 2
1 1 1 2 3 3 5 5 5 5 3 3 3 2 2 2 2 2 1 1 1 1 1 0 0 1 1 1 4 5 5 5 5 4 4 3 2 2
2 1 2 2 2 3 3 4 3 3 2 2 2 1 1 2 3 2 2 1 1 1 0 1 0 1 1 1 2 4 5 5 5 4 4 4 3 3
3 2 2 2 3 4 4 4 3 2 3 3 3 2 2 2 3 3 2 2 0 0 0 1 0 0 1 1 1 2 3 4 5 5 5 4 4 3
3 3 4 3 4 4 3 3 2 1 2 3 3 3 2 2 3 2 2 2 1 0 1 1 1 0 1 0 0 1 2 3 3 4 4 4 4 3
2 2 2 3 4 4 3 2 2 1 2 2 2 2 2 1 1 1 1 2 1 1 1 2 1 1 1 1 1 1 1 2 2 3 4 5 5 5
1 1 2 3 4 4 3 3 3 3 2 2 2 2 1 1 1 1 0 1 1 2 2 3 2 2 2 1 1 1 1 2 2 2 3 3 5 6
2 2 3 4 4 3 4 4 3 2 2 2 1 1 1 1 1 1 1 1 0 0 1 2 2 2 2 2 2 1 1 2 2 3 3 3 3 3
2 3 4 4 4 3 3 3 2 2 1 1 1 1 1 1 1 1 1 1 1 1 0 1 2 3 2 2 2 2 2 2 2 3 3 4 4 5
2 3 3 3 3 2 2 2 2 1 1 1 1 1 1 1 1 1 1 1 1 1 2 1 0 2 4 3 2 3 3 3 3 3 3 4 5 5
3 2 2 2 1 1 1 1 1 1 1 1 1 1 1 1 1 1 0 0 1 1 2 2 2 1 1 2 4 4 3 3 3 3 3 4 5 4
3 2 1 1 1 1 1 1 1 1 1 1 1 1 1 1 1 1 1 1 2 2 2 1 1 1 2 4 2 4 4 3 2 2 3 4 5 5
1 1 1 1 1 1 1 1 1 1 1 1 1 1 1 1 1 2 1 2 2 2 2 1 1 2 3 4 3 3 5 4 3 3 3 3 4 5
0 0 1 1 1 1 1 1 1 1 1 1 1 1 1 1 2 2 2 2 2 2 3 3 3 4 3 2 3 3 2 4 5 4 3 3 3 3
0 0 0 1 1 1 1 1 1 1 1 1 1 2 2 2 2 3 2 2 2 2 3 3 2 1 1 2 3 4 4 3 3 6 7 5 4 4
0 0 0 0 0 0 0 1 1 1 1 1 2 2 2 2 2 2 2 2 2 3 3 3 2 1 2 2 3 3 4 4 3 3 3 5 8 10
Wind_Direction
221 218 216 222 208 206 196 189 188 212 232 212 192 87 124 99 89 95 95 85 101 114 120 119 120 120 119 112 105 101 98 97 97 95 92 88 86 83
224 210 218 223 212 198 198 199 197 197 215 191 177 128 104 95 83 82 87 92 99 110 115 118 119 119 116 111 107 104 101 100 99 98 96 93 87 85
223 193 219 208 197 190 179 184 183 169 183 159 120 115 121 109 83 72 71 75 96 109 116 119 122 121 115 113 112 108 105 103 101 99 95 91 87 88
244 164 245 210 197 182 171 180 179 175 168 170 159 159 153 138 111 92 74 80 81 98 112 119 122 123 122 119 113 109 105 103 101 99 97 92 88 89
85 123 202 166 188 174 159 161 165 162 155 159 164 146 113 103 93 79 70 66 91 98 103 114 122 125 125 124 123 120 116 113 108 102 97 94 87 87
77 79 87 157 178 173 167 157 147 143 140 141 137 120 104 84 109 113 77 46 46 81 90 99 109 122 130 133 136 134 130 127 122 113 103 95 89 88
70 65 66 84 110 142 146 149 146 142 138 137 132 122 127 149 189 179 165 125 12 153 130 109 119 136 152 160 157 154 150 147 142 135 127 117 107 106
81 59 54 58 66 82 97 108 126 141 150 149 154 169 192 202 174 174 161 172 213 165 162 175 161 199 199 188 172 168 169 164 159 158 159 161 162 158
74 70 58 52 70 85 81 81 79 83 110 148 155 174 181 184 174 175 189 208 227 155 160 202 230 240 245 213 191 188 186 185 183 177 172 171 179 180
55 71 88 66 76 103 100 86 75 60 76 107 138 161 199 191 184 177 162 117 82 87 163 193 201 247 236 216 206 203 198 197 195 193 187 184 184 183
44 58 84 85 74 102 110 105 85 54 66 87 98 93 95 118 134 125 128 133 125 174 171 200 178 263 277 251 208 199 204 207 207 205 198 191 188 187
49 48 54 72 76 93 108 114 106 65 72 75 67 61 74 113 136 158 163 159 143 210 178 188 179 185 251 248 242 211 209 213 215 216 212 209 199 198
57 46 39 60 75 83 87 93 107 104 86 76 64 54 55 62 89 138 170 175 182 218 178 177 179 182 215 269 266 227 218 217 212 219 219 220 213 204
68 42 41 68 77 75 74 62 73 83 79 67 59 43 26 12 359 0 145 189 227 238 197 178 185 188 194 226 252 243 230 224 217 221 221 216 218 216
61 63 61 68 80 73 52 59 73 74 74 67 52 19 345 341 0 15 31 44 17 250 195 198 200 193 204 221 232 240 254 242 225 228 225 221 220 215
51 56 67 66 66 58 49 49 48 56 72 57 12 3 11 25 27 18 14 6 9 2 22 203 210 204 217 225 227 243 237 237 235 234 245 245 233 223
84 63 57 54 52 44 40 39 34 37 37 23 20 18 11 10 6 8 18 15 0 334 334 346 282 239 240 236 240 246 248 248 242 227 225 249 248 235
93 78 69 61 55 35 22 10 10 5 350 352 356 336 324 330 346 0 359 311 298 302 307 322 326 310 275 241 223 243 251 254 258 235 225 245 261 253
85 76 72 47 16 8 358 346 331 332 334 345 340 330 329 330 328 318 310 297 297 298 301 306 300 280 283 292 273 215 237 264 267 259 239 236 256 268
61 53 28 11 4 348 340 342 343 2 17 2 351 337 329 317 304 297 294 296 298 299 300 292 273 260 258 276 284 273 231 239 251 261 262 257 262 268
53 5 359 344 332 328 331 338 346 359 355 342 327 317 309 299 288 287 290 292 292 291 291 291 287 276 267 261 275 287 275 231 235 252 262 265 272 270
251 250 286 284 297 333 350 347 339 342 338 319 311 305 293 280 281 286 284 282 281 283 287 296 314 309 258 261 281 295 306 312 276 252 246 242 257 265
246 234 248 264 284 301 303 318 316 313 312 305 304 303 297 289 287 282 284 287 288 293 302 309 316 299 281 272 281 289 295 305 309 304 285 260 253 262